[Iaude] MPEC P38: 2024 PD [a=1.14,e=0.10,i=23.4,H=24.5]
    mpec at cfa.harvard.edu 
    mpec at cfa.harvard.edu
       
    Sat Aug  3 00:37:55 EDT 2024
    
    
  
M.P.E.C. 2024-P38                                Issued 2024 August 3, 04:36 UT
     The Minor Planet Electronic Circulars contain information on unusual
         minor planets, routine data on comets and natural satellites,
         and occasional editorial announcements.  They are published
    on behalf of Division F of the International Astronomical Union by the
          Minor Planet Center, Smithsonian Astrophysical Observatory,
                          Cambridge, MA 02138, U.S.A.
			  
             Prepared using the Tamkin Foundation Computer Network
                              MPC at CFA.HARVARD.EDU
            URL https://www.minorplanetcenter.net/    ISSN 1523-6714
                                    2024 PD                                     
Observations:
     K24P00D* C2024 08 01.38669921 25 45.912+12 03 16.66         20.26wXEP038F52
     K24P00D  C2024 08 01.39787521 25 39.272+12 06 14.79         20.22wXEP038F52
     K24P00D  C2024 08 01.40908621 25 32.605+12 09 13.14         20.38wXEP038F52
     K24P00D  C2024 08 01.42028421 25 25.932+12 12 11.22         20.26wXEP038F52
     K24P00D KC2024 08 01.94645021 20 33.379+14 29 09.96         20.6 GVEP038J95
     K24P00D KC2024 08 01.95946721 20 25.776+14 32 33.29         20.2 GVEP038J95
     K24P00D KC2024 08 01.97071621 20 19.166+14 35 29.29         20.2 GVEP038J95
     K24P00D KC2024 08 01.97553921 20 16.330+14 36 43.88         19.9 GVEP038J95
     K24P00D HB2024 08 02.03323 21 19 41.48 +14 51 50.7          20.4 GVEP038204
     K24P00D KB2024 08 02.04206221 19 37.07 +14 54 09.7          20.0 GXEP038I93
     K24P00D KB2024 08 02.04369 21 19 35.32 +14 54 32.9                VEP038204
     K24P00D KB2024 08 02.04782521 19 33.66 +14 55 39.2          20.1 GXEP038I93
     K24P00D KB2024 08 02.05350121 19 30.26 +14 57 07.2          20.6 GXEP038I93
     K24P00D KC2024 08 02.31484621 17 03.01 +16 04 28.2          20.2 GVEP038H21
     K24P00D KC2024 08 02.31769021 17 01.33 +16 05 12.0          20.2 GVEP038H21
     K24P00D KC2024 08 02.32053321 16 59.63 +16 05 55.2          20.9 GVEP038H21
     K24P00D KC2024 08 02.32252421 16 58.45 +16 06 25.5          20.6 GVEP038H21
     K24P00D KC2024 08 03.16589321 09 08.10 +19 37 37.0          20.8 GVEP038H21
     K24P00D KC2024 08 03.16869121 09 06.44 +19 38 18.3          20.8 GVEP038H21
     K24P00D KC2024 08 03.17149121 09 04.75 +19 38 59.6          20.6 GVEP038H21
     K24P00D KC2024 08 03.17429021 09 03.06 +19 39 41.0          20.9 GVEP038H21
Observer details:
204 Schiaparelli Observatory.  Observer L. Buzzi.  0.84-m f/3.5 reflector +
    CMO.
F52 Pan-STARRS 2, Haleakala.  Observers J. Herman, T. Lowe, P. Minguez, A.
    Schultz, I. Smith.  Measurers K. Chambers, T. de Boer, J. Fairlamb, H.
    Gao, M. Huber, C.-C. Lin, E. Magnier, Y. Ramanjooloo, R. Wainscoat, R.
    Weryk.  1.8-m Ritchey-Chretien + CCD.
H21 Astronomical Research Observatory, Westfield.  Observer R. Holmes.
    Measurers T. Linder, R. Holmes.  0.81-m f/4.0 astrograph + CCD, 0.76-m
    f/3.0 astrograph + CCD.
I93 St Pardon de Conques.  Observer F. Losse.  0.40-m f/3.7 reflector + CMO.
J95 Great Shefford.  Observer P. Birtwhistle.  0.41-m f/6.3 Schmidt-Cassegrain
    + CCD.
Orbital elements:
2024 PD                                                  Earth MOID = 0.0764 AU
Epoch 2024 Oct. 17.0 TT = JDT 2460600.5                 MPC                     
M   4.81287              (2000.0)            P               Q                  
n   0.81337251     Peri.   72.35463     +0.88491020     -0.33840114             
a   1.1366054      Node   306.20795     +0.09936455     +0.80845318             
e   0.0986451      Incl.   23.36743     +0.45503915     +0.48154764             
P   1.21           H   24.52          G   0.15           U   7                  
Residuals in seconds of arc
240801 F52  0.0   0.0     240801 J95  0.4-  0.5-    240802 H21  0.2+  0.3+
240801 F52  0.1-  0.1+    240802 204  0.3-  0.1+    240802 H21  0.1+  0.1+
240801 F52  0.0   0.0     240802 I93  0.1+  0.4-    240802 H21  0.2+  0.1-
240801 F52  0.1+  0.0     240802 204  0.1+  0.2+    240803 H21  0.1+  0.1+
240801 J95  0.2-  0.2-    240802 I93  0.2+  0.3-    240803 H21  0.2+  0.0
240801 J95  0.1-  0.3-    240802 I93  0.3-  0.2-    240803 H21  0.0   0.1-
240801 J95  0.3-  0.1+    240802 H21  0.1-  0.0     240803 H21  0.3-  0.0
Ephemeris:
2024 PD                  a,e,i = 1.14, 0.10, 23                  q = 1.0245
Date    TT    R. A. (2000) Decl.     Delta      r    Elong.  Phase     V
2024 07 04    23 52 45.5 -50 55 53   0.2129  1.1292   116.9    53.4    23.4
...
2024 07 19    23 04 57.7 -34 50 05   0.1196  1.1053   136.0    39.7    21.7
...
2024 07 27    22 12 19.4 -11 27 20   0.08593 1.0929   153.2    24.8    20.5
...
2024 08 02    21 20 01.6 +14 43 57   0.08160 1.0839   146.6    31.0    20.6
2024 08 03    21 10 39.2 +18 57 17   0.08307 1.0825   143.3    34.1    20.7
2024 08 04    21 01 12.3 +22 57 05   0.08513 1.0810   139.8    37.3    20.8
...
2024 08 10    20 05 35.4 +40 55 19   0.1068  1.0725   120.9    54.2    21.8
...
2024 08 18    19 03 58.6 +52 07 07   0.1486  1.0619   105.6    66.7    22.9
...
2024 09 02    17 55 53.0 +58 27 54   0.2336  1.0448    92.3    74.8    24.1
A. U. Tomatic                (C) Copyright 2024 MPC           M.P.E.C. 2024-P38
    
    
More information about the Iaude
mailing list